This demonstration page uses our WeatherBlox Daily Observations layout. Learn more.

Left ArrowRight Arrow

40.92945, -100.16068

Hourly Observations for April 12, 2021

Temp ( °F °C ) Dew Point ( °F °C ) Humidity (%) Winds ( mph kmh ) Pressure ( in mb ) Visibility ( mi km ) Precip ( " mm )
12:15 am 00:15 Clear 41 5.1 28 -2.5 58 58 N 20 31 30.03 1017 10 16.0934 0 0
12:35 am 00:35 Clear 41 4.8 28 -2.5 60 60 N 18 30 30.04 1017 10 16.0934 0 0
12:55 am 00:55 Clear 40 4.5 28 -2.3 62 62 N 16 26 30.05 1018 10 16.0934 0 0
1:15 am 01:15 Clear 39 4 28 -2 65 65 N 15 24 30.07 1018 10 16.0934 0 0
1:35 am 01:35 Clear 38 3.5 28 -2.1 67 67 NNW 13 20 30.08 1019 10 16.0934 0 0
1:55 am 01:55 Partly Cloudy 38 3.5 29 -1.8 69 69 N 13 20 30.09 1019 10 16.0934 0 0
2:15 am 02:15 Partly Cloudy 38 3.1 29 -1.8 71 71 NNW 10 17 30.1 1019 10 16.0934 0 0
2:35 am 02:35 Clear 37 2.9 29 -1.7 72 72 N 10 17 30.1 1019 10 16.0934 0 0
2:55 am 02:55 Clear 37 2.7 29 -1.7 73 73 N 12 19 30.08 1019 10 16.0934 0 0
3:15 am 03:15 Partly Cloudy 37 2.9 29 -1.6 73 73 N 10 17 30.09 1019 10 16.0934 0 0
3:35 am 03:35 Clear 36 2.4 29 -1.6 75 75 NNW 7 11 30.09 1019 10 16.0934 0 0
3:55 am 03:55 Partly Cloudy 33 0.7 28 -2.1 82 82 W 7 11 30.12 1020 10 16.0934 0 0
4:15 am 04:15 Mostly Cloudy 33 0.6 28 -2.3 81 81 W 7 11 30.13 1020 10 16.0934 0 0
4:35 am 04:35 Mostly Cloudy 34 1.2 29 -1.9 80 80 W 8 13 30.14 1020 10 16.0934 0 0
4:55 am 04:55 Cloudy 36 2.3 29 -1.6 76 76 WNW 6 9 30.12 1020 10 16.0934 0 0
5:15 am 05:15 Cloudy 37 2.7 29 -1.7 73 73 NW 9 15 30.12 1020 10 16.0934 0 0
5:35 am 05:35 Cloudy 37 2.5 29 -1.9 73 73 NW 8 13 30.12 1020 10 16.0934 0 0
5:55 am 05:55 Cloudy 37 2.5 27 -2.8 68 68 NNW 12 19 30.12 1020 10 16.0934 0 0
6:15 am 06:15 Cloudy 37 2.7 24 -4.5 59 59 NNW 12 19 30.13 1020 10 16.0934 0 0
6:35 am 06:35 Cloudy 36 2.3 23 -4.9 59 59 NNW 12 19 30.13 1020 10 16.0934 0 0
6:55 am 06:55 Cloudy 36 2.1 23 -5 60 60 NNW 10 17 30.15 1021 10 16.0934 0 0
7:15 am 07:15 Cloudy 35 1.8 23 -5 61 61 NNW 9 15 30.15 1021 10 16.0934 0 0
7:35 am 07:35 Mostly Cloudy 34 1 23 -5 65 65 NW 7 11 30.17 1022 10 16.0934 0 0
7:55 am 07:55 Hazy 34 1.1 24 -4.7 66 66 NW 6 9 30.17 1022 4 6.43736 0 0
8:15 am 08:15 Partly Cloudy 36 2.2 23 -4.8 60 60 NW 9 15 30.18 1022 10 16.0934 0 0
8:35 am 08:35 Partly Cloudy 37 3 23 -5.1 56 56 NNW 15 24 30.17 1022 10 16.0934 0 0
8:55 am 08:55 Partly Cloudy 38 3.6 23 -5.2 53 53 NNW 16 26 30.16 1021 10 16.0934 0 0
9:15 am 09:15 Sunny 39 4.1 23 -5.2 51 51 NNW 18 30 30.16 1021 10 16.0934 0 0
9:35 am 09:35 Sunny 41 4.8 22 -5.3 48 48 NNW 20 31 30.15 1021 10 16.0934 0 0
9:55 am 09:55 Sunny 42 5.3 22 -5.5 46 46 NNW 17 28 30.15 1021 10 16.0934 0 0
10:15 am 10:15 Sunny 43 6.3 22 -5.5 43 43 NNW 20 31 30.14 1021 10 16.0934 0 0
10:35 am 10:35 Sunny 44 6.4 21 -6 41 41 NNW 17 28 30.13 1020 10 16.0934 0 0
10:55 am 10:55 Sunny 45 7 20 -6.5 38 38 NNW 17 28 30.13 1020 10 16.0934 0 0
11:15 am 11:15 Sunny 45 7.4 21 -6.2 38 38 NNW 13 20 30.14 1021 10 16.0934 0 0
11:35 am 11:35 Sunny 47 8.2 21 -5.9 37 37 NW 17 28 30.12 1020 10 16.0934 0 0
11:55 am 11:55 Sunny 47 8.6 21 -6 35 35 NNW 18 30 30.11 1020 10 16.0934 0 0
12:15 pm 12:15 Sunny 48 8.8 21 -6.3 34 34 NW 14 22 30.11 1020 10 16.0934 0 0
12:35 pm 12:35 Sunny 50 9.9 22 -5.7 33 33 NNW 17 28 30.09 1019 10 16.0934 0 0
12:55 pm 12:55 Sunny 49 9.7 20 -6.4 32 32 NW 9 15 30.08 1019 10 16.0934 0 0
1:15 pm 13:15 Sunny 51 10.4 21 -6.1 31 31 WNW 14 22 30.08 1019 10 16.0934 0 0
1:35 pm 13:35 Sunny 52 11 21 -6.2 30 30 NW 14 22 30.06 1018 10 16.0934 0 0
1:55 pm 13:55 Sunny 52 11.2 21 -6.1 29 29 W 17 28 30.06 1018 10 16.0934 0 0
2:15 pm 14:15 Sunny 53 11.8 21 -6 29 29 W 14 22 30.04 1017 10 16.0934 0 0
2:35 pm 14:35 Sunny 54 12.3 21 -6 28 28 WNW 12 19 30.04 1017 10 16.0934 0 0
2:55 pm 14:55 Sunny 55 12.6 20 -6.5 26 26 WNW 15 24 30.03 1017 10 16.0934 0 0
3:15 pm 15:15 Sunny 56 13.2 19 -7.1 24 24 WNW 10 17 30.02 1017 10 16.0934 0 0
3:35 pm 15:35 Sunny 57 13.9 19 -7.1 23 23 NW 13 20 30.01 1016 10 16.0934 0 0
3:55 pm 15:55 Sunny 57 13.8 19 -7.5 22 22 NW 12 19 30.01 1016 10 16.0934 0 0
4:15 pm 16:15 Sunny 58 14.2 18 -8 21 21 NW 16 26 29.99 1016 10 16.0934 0 0
4:35 pm 16:35 Sunny 58 14.3 17 -8.3 20 20 NW 14 22 29.99 1016 10 16.0934 0 0
4:55 pm 16:55 Partly Cloudy 57 14 17 -8.5 20 20 NW 16 26 29.99 1016 10 16.0934 0 0
5:15 pm 17:15 Partly Cloudy 57 14 16 -8.9 20 20 NW 15 24 30 1016 10 16.0934 0 0
5:35 pm 17:35 Partly Cloudy 58 14.2 16 -8.8 20 20 NW 14 22 30 1016 10 16.0934 0 0
5:55 pm 17:55 Partly Cloudy 57 13.9 16 -9 20 20 NW 17 28 30.01 1016 10 16.0934 0 0
6:15 pm 18:15 Sunny 56 13.6 15 -9.5 19 19 NNW 21 33 30.02 1017 10 16.0934 0 0
6:35 pm 18:35 Sunny 56 13.6 16 -9 20 20 NNW 16 26 30.02 1017 10 16.0934 0 0
6:55 pm 18:55 Sunny 56 13.1 15 -9.6 20 20 NNW 13 20 30.03 1017 10 16.0934 0 0
7:15 pm 19:15 Sunny 55 12.6 15 -9.3 21 21 N 14 22 30.04 1017 10 16.0934 0 0
7:35 pm 19:35 Sunny 53 11.9 17 -8.6 23 23 N 9 15 30.04 1017 10 16.0934 0 0
7:55 pm 19:55 Sunny 51 10.8 18 -7.7 27 27 N 8 13 30.06 1018 10 16.0934 0 0
8:15 pm 20:15 Sunny 47 8.4 20 -6.5 34 34 N 7 11 30.1 1019 10 16.0934 0 0
8:35 pm 20:35 Clear 45 7.3 20 -6.6 37 37 N 7 11 30.12 1020 10 16.0934 0 0
8:55 pm 20:55 Clear 42 5.8 20 -6.7 41 41 N 7 11 30.15 1021 10 16.0934 0 0
9:15 pm 21:15 Clear 40 4.4 20 -6.4 46 46 N 6 9 30.17 1022 10 16.0934 0 0
9:35 pm 21:35 Clear 38 3.6 20 -6.4 48 48 NNW 6 9 30.2 1023 10 16.0934 0 0
9:55 pm 21:55 Clear 36 2.1 20 -6.4 54 54 NNW 6 9 30.23 1024 10 16.0934 0 0
10:15 pm 22:15 Clear 35 1.7 20 -6.6 54 54 N 7 11 30.25 1024 10 16.0934 0 0
10:35 pm 22:35 Clear 34 1.1 21 -6 60 60 NNW 7 11 30.28 1025 10 16.0934 0 0
10:55 pm 22:55 Clear 34 1 21 -6.1 59 59 NNW 9 15 30.29 1026 10 16.0934 0 0
11:15 pm 23:15 Clear 33 0.6 21 -6.2 61 61 NNW 8 13 30.29 1026 10 16.0934 0 0
11:35 pm 23:35 Clear 32 0.1 20 -6.5 62 62 NW 7 11 30.31 1026 10 16.0934 0 0
11:55 pm 23:55 Clear 31 -0.6 22 -5.8 68 68 WNW 6 9 30.32 1027 10 16.0934 0 0

Powered by AerisWeather